Regional Weather Roundup
Issued by NWS

Home | Current Version | Previous Version | Graphics & Text | Print | Product List | Glossary On
Versions: 1 2 3 4 5 6 7 8 9 10 11 12 13 14 15 16 17 18 19 20 21 22 23 24 25 26 27 28 29 30 31 32 33 34 35 36 37 38 39 40 41 42 43 44 45 46 47 48 49 50
723
ASUS43 KBIS 180110
RWRND

NORTH DAKOTA REGIONAL WEATHER ROUNDUP
NATIONAL WEATHER SERVICE BISMARCK ND
700 PM CST TUE JAN 17 2017

NOTE: "FAIR" INDICATES FEW OR NO CLOUDS BELOW 12,000 FEET WITH NO
SIGNIFICANT WEATHER AND/OR OBSTRUCTIONS TO VISIBILITY.


NDZ001>003-009>011-017-180200-
NORTHWEST NORTH DAKOTA

CITY           SKY/WX    TMP DP  RH WIND       PRES   REMARKS
WILLISTON      FAIR      30  20  66 S8        29.71F
MINOT          FAIR      35  23  61 SW22      29.63F
$$

NDZ018>021-031>035-040>046-180200-
SOUTHWEST NORTH DAKOTA

CITY           SKY/WX    TMP DP  RH WIND       PRES   REMARKS
BISMARCK       FAIR      27  17  66 W5        29.78F
DICKINSON      FAIR      30  20  66 W17       29.74F WCI  18
GARRISON         N/A     26  20  77 SW10      29.69F WCI  16
HETTINGER ARPT CLOUDY    30  18  60 NW8       29.82F
$$

NDZ004>008-012>016-024-026-027-054-180200-
NORTHEAST NORTH DAKOTA

CITY           SKY/WX    TMP DP  RH WIND       PRES   REMARKS
GRAND FORKS    CLOUDY    22  17  81 S22       29.71F WCI   6
GRND FRKS AFB  CLOUDY    25  19  76 S16       29.69F WCI  12
DEVILS LAKE    FAIR      27  19  72 SW17      29.67R WCI  14
$$

NDZ022-023-025-028>030-036>039-047>053-180200-
SOUTHEAST NORTH DAKOTA

CITY           SKY/WX    TMP DP  RH WIND       PRES   REMARKS
FARGO          CLEAR     21  17  84 S14       29.84F WCI   8
JAMESTOWN      FAIR      27  17  66 SW16      29.74F WCI  15
$$





USA.gov is the U.S. government's official web portal to all federal, state and local government web resources and services.